HUZAR14 EPMB-EPLK

Flight info

Callsign HUZAR14
Flight time 0h 41m
Altitude 36000
Route OSLOG DCT UNDUK DCT OLNED/N0456F350 DCT LAW DCT TENVO DCT ABAKU
Aircraft F35/M-SDE3RV/LB1

Departure

Time 2026-05-05 07:25
Airport Malbork Królewo Air Base (EPMB)

Arrival

Time 2026-05-05 08:06
Airport Łask Air Base (EPLK)
Time Latitude Longitude Altitude Speed Heading
2026-05-05 07:19 54.03149 19.14572 15 ft 0 kts 228°
2026-05-05 07:23 54.03138 19.14563 15 ft 2 kts 194°
2026-05-05 07:23 54.03075 19.14584 15 ft 19 kts 169°
2026-05-05 07:23 54.02921 19.14632 16 ft 21 kts 169°
2026-05-05 07:23 54.02883 19.14644 17 ft 0 kts 169°
2026-05-05 07:24 54.02865 19.14650 18 ft 12 kts 169°
2026-05-05 07:24 54.02775 19.14581 22 ft 13 kts 252°
2026-05-05 07:24 54.02753 19.14380 23 ft 80 kts 259°
2026-05-05 07:25 54.02526 19.12373 99 ft 225 kts 259°
2026-05-05 07:25 54.01996 19.09773 364 ft 217 kts 232°
2026-05-05 07:25 54.00815 19.08111 1050 ft 223 kts 212°
2026-05-05 07:25 53.99484 19.06748 1767 ft 222 kts 210°
2026-05-05 07:26 53.98143 19.05395 2516 ft 226 kts 211°
2026-05-05 07:26 53.96798 19.03957 3278 ft 229 kts 213°
2026-05-05 07:26 53.95471 19.02451 4034 ft 230 kts 214°
2026-05-05 07:26 53.94161 19.00915 4785 ft 233 kts 215°
2026-05-05 07:27 53.92865 18.99238 5550 ft 237 kts 221°
2026-05-05 07:27 53.91648 18.97354 6306 ft 238 kts 223°
2026-05-05 07:27 53.90408 18.95468 7056 ft 240 kts 221°
2026-05-05 07:27 53.89116 18.93623 7813 ft 242 kts 220°
2026-05-05 07:28 53.87815 18.91747 8569 ft 247 kts 221°
2026-05-05 07:28 53.86520 18.89830 9335 ft 249 kts 221°
2026-05-05 07:28 53.85202 18.87891 10090 ft 251 kts 221°
2026-05-05 07:28 53.83862 18.85947 10850 ft 258 kts 221°
2026-05-05 07:29 53.82136 18.83433 11658 ft 349 kts 221°
2026-05-05 07:29 53.80270 18.80710 12454 ft 354 kts 221°
2026-05-05 07:29 53.78569 18.77651 13244 ft 361 kts 233°
2026-05-05 07:29 53.77168 18.74128 14024 ft 364 kts 239°
2026-05-05 07:30 53.75887 18.70397 14796 ft 367 kts 241°
2026-05-05 07:30 53.73478 18.62703 16312 ft 375 kts 246°
2026-05-05 07:30 53.72520 18.58567 17073 ft 381 kts 250°
2026-05-05 07:31 53.71563 18.54378 17825 ft 385 kts 247°
2026-05-05 07:31 53.70499 18.50191 18581 ft 389 kts 247°
2026-05-05 07:31 53.69478 18.45947 19328 ft 394 kts 248°
2026-05-05 07:31 53.68444 18.41629 20083 ft 398 kts 248°
2026-05-05 07:32 53.67373 18.37296 20833 ft 402 kts 248°
2026-05-05 07:32 53.66300 18.32899 21587 ft 408 kts 248°
2026-05-05 07:32 53.65218 18.28453 22335 ft 411 kts 248°
2026-05-05 07:32 53.64114 18.23968 23081 ft 417 kts 248°
2026-05-05 07:33 53.63010 18.19479 23827 ft 421 kts 248°
2026-05-05 07:33 53.61887 18.14907 24572 ft 426 kts 248°
2026-05-05 07:33 53.60738 18.10258 25329 ft 432 kts 248°
2026-05-05 07:33 53.59578 18.05571 26083 ft 435 kts 248°
2026-05-05 07:34 53.58424 18.00813 26832 ft 443 kts 248°
2026-05-05 07:34 53.57209 17.96012 27458 ft 450 kts 244°
2026-05-05 07:34 53.55738 17.91344 27759 ft 451 kts 242°
2026-05-05 07:34 53.54331 17.86628 27887 ft 451 kts 245°
2026-05-05 07:35 53.52973 17.81927 27944 ft 452 kts 243°
2026-05-05 07:35 53.51544 17.77235 27970 ft 451 kts 243°
2026-05-05 07:35 53.50142 17.72515 27982 ft 451 kts 244°
2026-05-05 07:35 53.48743 17.67804 27985 ft 452 kts 243°
2026-05-05 07:36 53.47316 17.63080 27991 ft 451 kts 243°
2026-05-05 07:36 53.45906 17.58373 27993 ft 451 kts 243°
2026-05-05 07:36 53.44494 17.53670 27998 ft 452 kts 243°
2026-05-05 07:36 53.43074 17.48973 27995 ft 451 kts 243°
2026-05-05 07:37 53.41659 17.44283 27997 ft 451 kts 243°
2026-05-05 07:37 53.40256 17.39646 27998 ft 452 kts 243°
2026-05-05 07:37 53.38832 17.34954 27995 ft 450 kts 243°
2026-05-05 07:37 53.37413 17.30282 27998 ft 451 kts 243°
2026-05-05 07:38 53.35984 17.25585 27996 ft 451 kts 243°
2026-05-05 07:38 53.34557 17.20910 27996 ft 450 kts 243°
2026-05-05 07:38 53.33128 17.16233 27996 ft 452 kts 243°
2026-05-05 07:38 53.31696 17.11554 27996 ft 450 kts 243°
2026-05-05 07:39 53.30267 17.06900 27998 ft 451 kts 243°
2026-05-05 07:39 53.28828 17.02216 27993 ft 451 kts 243°
2026-05-05 07:39 53.27409 16.97611 27996 ft 450 kts 243°
2026-05-05 07:39 53.25972 16.92955 27999 ft 452 kts 243°
2026-05-05 07:40 53.24531 16.88294 27993 ft 451 kts 243°
2026-05-05 07:40 53.23092 16.83649 27997 ft 450 kts 243°
2026-05-05 07:40 53.21648 16.78994 27998 ft 452 kts 243°
2026-05-05 07:40 53.20204 16.74353 27994 ft 450 kts 243°
2026-05-05 07:41 53.18760 16.69720 27997 ft 451 kts 242°
2026-05-05 07:41 53.16971 16.65463 28020 ft 450 kts 224°
2026-05-05 07:41 53.14387 16.62513 28044 ft 454 kts 203°
2026-05-05 07:41 53.11333 16.61286 28063 ft 452 kts 182°
2026-05-05 07:42 53.08255 16.61886 28067 ft 456 kts 165°
2026-05-05 07:42 53.05215 16.63376 28036 ft 452 kts 162°
2026-05-05 07:42 52.99189 16.66474 28002 ft 453 kts 164°
2026-05-05 07:43 52.96158 16.67901 27999 ft 453 kts 165°
2026-05-05 07:43 52.93108 16.69273 27995 ft 453 kts 167°
2026-05-05 07:43 52.90005 16.70172 27999 ft 453 kts 173°
2026-05-05 07:43 52.86874 16.70869 27994 ft 453 kts 171°
2026-05-05 07:44 52.83775 16.71806 27995 ft 452 kts 170°
2026-05-05 07:44 52.80655 16.72642 27994 ft 454 kts 172°
2026-05-05 07:44 52.77542 16.73462 27992 ft 452 kts 171°
2026-05-05 07:44 52.74480 16.74326 27996 ft 453 kts 171°
2026-05-05 07:45 52.71328 16.75172 27996 ft 453 kts 171°
2026-05-05 07:45 52.68264 16.75997 27992 ft 452 kts 171°
2026-05-05 07:45 52.65147 16.76851 27991 ft 454 kts 171°
2026-05-05 07:45 52.62040 16.77688 27992 ft 452 kts 171°
2026-05-05 07:46 52.58929 16.78526 27995 ft 453 kts 171°
2026-05-05 07:46 52.55669 16.79408 28003 ft 540 kts 171°
2026-05-05 07:46 52.51733 16.80466 27991 ft 578 kts 171°
2026-05-05 07:46 52.47818 16.81580 28604 ft 581 kts 169°
2026-05-05 07:47 52.43832 16.82794 28283 ft 583 kts 169°
2026-05-05 07:47 52.39920 16.84059 28060 ft 587 kts 168°
2026-05-05 07:47 52.36008 16.85914 28058 ft 587 kts 154°
2026-05-05 07:47 52.32543 16.89457 28160 ft 590 kts 137°
2026-05-05 07:48 52.29830 16.94474 28228 ft 592 kts 120°
2026-05-05 07:48 52.28116 17.00470 28258 ft 592 kts 104°
2026-05-05 07:48 52.27504 17.07111 28271 ft 593 kts 87°
2026-05-05 07:48 52.28078 17.13759 28281 ft 592 kts 72°
2026-05-05 07:49 52.29333 17.20179 28153 ft 592 kts 77°
2026-05-05 07:49 52.30014 17.26804 28123 ft 592 kts 86°
2026-05-05 07:49 52.29691 17.40197 28055 ft 591 kts 98°
2026-05-05 07:50 52.28204 17.53195 28045 ft 537 kts 104°
2026-05-05 07:50 52.27284 17.58681 28016 ft 469 kts 106°
2026-05-05 07:50 52.26376 17.63563 28010 ft 456 kts 108°
2026-05-05 07:51 52.25287 17.68447 27585 ft 452 kts 112°
2026-05-05 07:51 52.24013 17.73114 26841 ft 448 kts 116°
2026-05-05 07:51 52.22637 17.77614 26094 ft 440 kts 117°
2026-05-05 07:51 52.21222 17.82033 25343 ft 436 kts 118°
2026-05-05 07:52 52.19638 17.86193 24607 ft 430 kts 125°
2026-05-05 07:52 52.17881 17.90120 23855 ft 426 kts 126°
2026-05-05 07:52 52.16239 17.94096 23109 ft 422 kts 123°
2026-05-05 07:52 52.14627 17.98053 22363 ft 415 kts 124°
2026-05-05 07:53 52.12989 18.01898 21625 ft 412 kts 124°
2026-05-05 07:53 52.11390 18.05740 20867 ft 406 kts 124°
2026-05-05 07:53 52.09836 18.09479 20121 ft 403 kts 124°
2026-05-05 07:53 52.08261 18.13212 19382 ft 398 kts 124°
2026-05-05 07:54 52.06709 18.16910 18635 ft 394 kts 124°
2026-05-05 07:54 52.05177 18.20564 17886 ft 389 kts 124°
2026-05-05 07:54 52.03653 18.24177 17137 ft 385 kts 124°
2026-05-05 07:54 52.02150 18.27741 16392 ft 381 kts 124°
2026-05-05 07:55 52.00660 18.31273 15645 ft 376 kts 124°
2026-05-05 07:55 51.99191 18.34747 14899 ft 364 kts 124°
2026-05-05 07:55 51.97796 18.38041 14153 ft 343 kts 124°
2026-05-05 07:55 51.96493 18.41117 13416 ft 326 kts 124°
2026-05-05 07:56 51.95236 18.44079 12672 ft 312 kts 124°
2026-05-05 07:56 51.94031 18.46914 11935 ft 299 kts 124°
2026-05-05 07:56 51.92875 18.49631 11186 ft 287 kts 125°
2026-05-05 07:56 51.91760 18.52250 10447 ft 277 kts 124°
2026-05-05 07:57 51.90682 18.54780 9702 ft 269 kts 125°
2026-05-05 07:57 51.89636 18.57231 8968 ft 260 kts 125°
2026-05-05 07:57 51.88624 18.59601 8223 ft 252 kts 125°
2026-05-05 07:57 51.87640 18.61905 7474 ft 245 kts 125°
2026-05-05 07:58 51.86672 18.64166 6736 ft 243 kts 125°
2026-05-05 07:58 51.85714 18.66403 5999 ft 241 kts 125°
2026-05-05 07:58 51.84772 18.68605 5424 ft 236 kts 125°
2026-05-05 07:58 51.83843 18.70768 5180 ft 237 kts 125°
2026-05-05 07:59 51.82903 18.72958 5083 ft 238 kts 125°
2026-05-05 07:59 51.81955 18.75164 5046 ft 238 kts 125°
2026-05-05 07:59 51.81007 18.77369 5033 ft 239 kts 125°
2026-05-05 07:59 51.80058 18.79575 5018 ft 238 kts 125°
2026-05-05 08:00 51.79110 18.81776 5023 ft 239 kts 125°
2026-05-05 08:00 51.78160 18.83980 5025 ft 238 kts 125°
2026-05-05 08:00 51.77210 18.86181 5033 ft 239 kts 125°
2026-05-05 08:00 51.76274 18.88350 5031 ft 239 kts 125°
2026-05-05 08:01 51.75323 18.90550 5021 ft 239 kts 125°
2026-05-05 08:01 51.74372 18.92756 5022 ft 239 kts 126°
2026-05-05 08:01 51.73416 18.94948 5024 ft 239 kts 126°
2026-05-05 08:01 51.72460 18.97143 5018 ft 239 kts 126°
2026-05-05 08:02 51.71512 18.99340 5013 ft 239 kts 125°
2026-05-05 08:02 51.70562 19.01540 5029 ft 239 kts 125°
2026-05-05 08:02 51.69932 19.02993 5030 ft 239 kts 125°
2026-05-05 08:02 51.68957 19.05168 5030 ft 239 kts 131°
2026-05-05 08:03 51.67770 19.07026 5038 ft 238 kts 145°
2026-05-05 08:03 51.66258 19.08094 5006 ft 240 kts 167°
2026-05-05 08:03 51.64616 19.08413 4700 ft 236 kts 178°
2026-05-05 08:03 51.63025 19.08474 4409 ft 218 kts 179°
2026-05-05 08:04 51.61586 19.08528 4098 ft 196 kts 179°
2026-05-05 08:04 51.60291 19.08578 3769 ft 180 kts 179°
2026-05-05 08:04 51.59067 19.08663 3429 ft 168 kts 177°
2026-05-05 08:04 51.57951 19.08961 3085 ft 167 kts 161°
2026-05-05 08:05 51.56989 19.09807 2692 ft 154 kts 136°
2026-05-05 08:05 51.56387 19.11417 2062 ft 191 kts 107°
2026-05-05 08:05 51.56041 19.13288 1532 ft 161 kts 106°
2026-05-05 08:05 51.55723 19.14971 1003 ft 150 kts 107°
2026-05-05 08:06 51.55434 19.16525 650 ft 136 kts 107°
2026-05-05 08:06 51.55204 19.17715 627 ft 91 kts 108°
2026-05-05 08:06 51.55027 19.18614 627 ft 81 kts 107°
2026-05-05 08:06 51.54902 19.19255 631 ft 44 kts 107°
2026-05-05 08:07 51.54892 19.19629 627 ft 27 kts 40°
2026-05-05 08:07 51.54943 19.19742 627 ft 7 kts 103°
2026-05-05 08:07 51.54966 19.19766 630 ft 1 kts 332°
2026-05-05 08:07 51.54971 19.19753 627 ft 0 kts 301°